EW5191 Weather Reports


Display with metric or nautical units.
time (UTC)temp
F
wind
direction
speed
MPH
gust
MPH
rain 1hr
in
rain 24hr
in
rain mn
in
humidity
%
barometer
mb
20260507151521 56 106 0.0 4.0 0.00 0.00 0.00 35 1014.0
20260507150032 55 149 3.0 7.0 0.00 0.00 0.00 36 1014.0
20260507144515 54 157 4.0 8.0 0.00 0.00 0.00 34 1013.9
20260507143012 53 168 3.0 6.0 0.00 0.00 0.00 35 1014.2
20260507141510 52 197 1.0 3.0 0.00 0.00 0.00 38 1014.3
20260507140006 48 211 0.0 1.0 0.00 0.00 0.00 39 1014.5
20260507134506 48 323 0.0 2.0 0.00 0.00 0.00 39 1014.8
20260507133006 47 360 5.0 10.0 0.00 0.00 0.00 38 1015.1
20260507131504 47 259 0.0 3.0 0.00 0.00 0.00 39 1014.6
20260507130004 46 241 3.0 7.0 0.00 0.00 0.00 40 1015.0
20260507124502 46 138 0.0 0.0 0.00 0.00 0.00 41 1014.3
20260507123002 46 244 1.0 2.0 0.00 0.00 0.00 40 1015.1
20260507121502 46 52 0.0 9.0 0.00 0.00 0.00 40 1014.8
20260507120000 47 23 8.0 12.0 0.00 0.00 0.00 41 1015.1
20260507114611 49 15 4.0 9.0 0.00 0.00 0.00 46 1014.7
20260507113057 47 64 0.0 2.0 0.00 0.00 0.00 47 1014.3
20260507111600 46 125 0.0 3.0 0.00 0.00 0.00 47 1014.4
20260507110057 46 115 0.0 3.0 0.00 0.00 0.00 44 1014.3
20260507104554 47 329 0.0 2.0 0.00 0.00 0.00 43 1014.4
20260507103058 47 155 1.0 5.0 0.00 0.00 0.00 45 1014.3
20260507101554 48 126 0.0 1.0 0.00 0.00 0.00 43 1014.2
20260507100052 47 154 0.0 3.0 0.00 0.00 0.00 40 1014.4
20260507094557 46 122 2.0 7.0 0.00 0.00 0.00 41 1013.9
20260507093046 44 124 0.0 6.0 0.00 0.00 0.00 47 1014.1
20260507091544 44 116 0.0 2.0 0.00 0.00 0.00 51 1014.1
20260507090044 45 133 2.0 4.0 0.00 0.00 0.00 43 1014.0
20260507084542 44 99 0.0 1.0 0.00 0.00 0.00 43 1014.2
20260507083041 44 165 1.0 3.0 0.00 0.00 0.00 45 1014.2
20260507081542 45 149 0.0 2.0 0.00 0.00 0.00 38 1014.1
20260507080038 44 127 1.0 2.0 0.00 0.00 0.00 41 1014.1
20260507074535 43 260 1.0 5.0 0.00 0.00 0.00 43 1014.2
20260507073034 41 142 0.0 1.0 0.00 0.00 0.00 46 1014.1
20260507071536 40 279 0.0 1.0 0.00 0.00 0.00 47 1014.8
20260507070041 41 299 0.0 1.0 0.00 0.00 0.00 46 1014.5
20260507064526 42 101 0.0 1.0 0.00 0.00 0.00 46 1014.0
20260507063024 43 150 0.0 2.0 0.00 0.00 0.00 42 1013.8
20260507061523 41 147 1.0 2.0 0.00 0.00 0.00 44 1013.9
20260507060021 41 229 0.0 1.0 0.00 0.00 0.00 43 1013.5
20260507054519 43 243 1.0 2.0 0.00 0.00 0.00 41 1013.6
20260507053019 46 221 0.0 1.0 0.00 0.00 0.00 38 1013.5
20260507051519 44 204 0.0 1.0 0.00 0.00 0.00 40 1013.6
20260507050027 43 182 0.0 2.0 0.00 0.00 0.00 41 1013.6
20260507044517 44 215 0.0 1.0 0.00 0.00 0.00 39 1013.5
20260507043017 47 193 0.0 1.0 0.00 0.00 0.00 36 1013.5
20260507041515 49 130 0.0 1.0 0.00 0.00 0.00 35 1013.5
20260507040014 52 141 1.0 5.0 0.00 0.00 0.00 32 1013.6
20260507034519 52 132 1.0 6.0 0.00 0.00 0.00 32 1013.4
20260507033024 53 109 3.0 6.0 0.00 0.00 0.00 31 1013.5
20260507031519 52 125 1.0 7.0 0.00 0.00 0.00 30 1013.5
20260507030017 52 137 0.0 6.0 0.00 0.00 0.00 32 1013.5
20260507024520 51 114 0.0 1.0 0.00 0.00 0.00 35 1013.5
20260507023016 54 118 0.0 3.0 0.00 0.00 0.00 33 1013.4
20260507021515 56 123 2.0 4.0 0.00 0.00 0.00 31 1013.4
20260507020013 58 126 0.0 4.0 0.00 0.00 0.00 30 1013.6
20260507014512 60 120 4.0 8.0 0.00 0.00 0.00 28 1013.7
20260507013008 61 134 0.0 7.0 0.00 0.00 0.00 28 1013.7
20260507011516 61 136 3.0 6.0 0.00 0.00 0.00 27 1013.9
20260507010004 61 113 3.0 7.0 0.00 0.00 0.00 26 1014.1
20260507004501 61 136 0.0 6.0 0.00 0.00 0.00 25 1014.1
20260507003001 62 92 2.0 7.0 0.00 0.00 0.00 24 1014.3
20260507001605 61 132 2.0 10.0 0.00 0.00 0.00 23 1014.5
20260507000056 61 129 3.0 9.0 0.00 0.00 0.00 22 1014.7
20260506234605 62 130 1.0 6.0 0.00 0.00 0.00 23 1014.8
20260506233055 60 127 3.0 11.0 0.00 0.00 0.00 23 1015.0
20260506231554 60 149 7.0 12.0 0.00 0.00 0.00 21 1015.1
20260506230045 59 104 2.0 14.0 0.00 0.00 0.00 22 1015.5
20260506224543 60 193 1.0 6.0 0.00 0.00 0.00 21 1015.7
20260506223042 59 151 4.0 11.0 0.00 0.00 0.00 21 1016.0
20260506221539 59 148 2.0 8.0 0.00 0.00 0.00 21 1016.3
20260506220036 58 160 5.0 10.0 0.00 0.00 0.00 21 1016.8
20260506214533 57 133 1.0 8.0 0.00 0.00 0.00 22 1017.1
20260506213033 57 264 4.0 10.0 0.00 0.00 0.00 21 1017.3
20260506211527 56 158 4.0 8.0 0.00 0.00 0.00 21 1017.9
20260506210032 55 222 2.0 9.0 0.00 0.00 0.00 22 1018.2
20260506204523 55 260 2.0 12.0 0.00 0.00 0.00 23 1018.4
20260506203023 55 234 1.0 7.0 0.00 0.00 0.00 26 1018.7
20260506201520 54 196 2.0 7.0 0.00 0.00 0.00 29 1018.9
20260506200015 53 140 4.0 14.0 0.00 0.00 0.00 30 1018.9
20260506194514 53 215 4.0 9.0 0.00 0.00 0.00 30 1019.2
20260506193014 53 21 2.0 11.0 0.00 0.00 0.00 30 1019.3
20260506191610 52 147 3.0 11.0 0.00 0.00 0.00 32 1019.5
20260506190009 51 354 1.0 11.0 0.00 0.00 0.00 35 1019.7
20260506184505 51 111 7.0 13.0 0.00 0.00 0.00 36 1019.9
20260506183003 50 69 2.0 10.0 0.00 0.00 0.00 37 1020.3
20260506181502 50 122 5.0 14.0 0.00 0.00 0.00 35 1020.6
20260506174558 48 310 4.0 13.0 0.00 0.00 0.00 36 1021.0
20260506171605 47 258 3.0 9.0 0.00 0.00 0.00 37 1021.2
20260506170055 47 162 3.0 7.0 0.00 0.00 0.00 39 1021.4
20260506164600 46 163 3.0 9.0 0.00 0.00 0.00 40 1021.5
20260506161619 45 162 3.0 7.0 0.00 0.00 0.00 43 1021.7
20260506160050 44 156 1.0 6.0 0.00 0.00 0.00 43 1022.0
20260506154552 44 129 2.0 6.0 0.00 0.00 0.00 45 1022.1